When you browse on this site, cookies collect data to enhance your experience and personalize the content and advertising you see.
Visit our Privacy Policy to learn more. By continuing to use the site, you agree to this use of cookies and data.
  • In Slovakia
  • List of Countries
  • For 7 days
  • Water Temperature
  • Satellite Maps
  • Weather Map
  • Weather Widgets
  • user-avatar
    Login

    Hourly Weather Shatily

    Today, 26 June, Wednesday

    Time Temperature Precipitation Wind Pressure Humidity
    00:00 +18°C° 0 mm 1 mps 753 mmHg 81%
    01:00 +18°C° 0 mm 1 mps 753 mmHg 84%
    02:00 +16°C° 0 mm 1 mps 753 mmHg 88%
    03:00 +16°C° 0 mm 1 mps 752 mmHg 89%
    04:00 +16°C° 0 mm 2 mps 752 mmHg 90%
    05:00 +17°C° 0 mm 2 mps 752 mmHg 91%
    06:00 +18°C° 0 mm 2 mps 751 mmHg 86%
    07:00 +20°C° 0 mm 2 mps 751 mmHg 82%
    08:00 +23°C° 0 mm 2 mps 751 mmHg 77%
    09:00 +24°C° 0 mm 3 mps 751 mmHg 73%
    10:00 +25°C° 0 mm 3 mps 750 mmHg 69%
    11:00 +26°C° 0 mm 3 mps 750 mmHg 65%
    12:00 +27°C° 0 mm 4 mps 750 mmHg 65%
    13:00 +28°C° 0 mm 4 mps 749 mmHg 64%
    14:00 +28°C° 0 mm 5 mps 749 mmHg 64%
    15:00 +28°C° 0 mm 5 mps 748 mmHg 67%
    16:00 +28°C° 0 mm 4 mps 747 mmHg 70%
    17:00 +27°C° 0 mm 4 mps 746 mmHg 72%
    18:00 +26°C° 0.5 mm 4 mps 746 mmHg 78%
    19:00 +25°C° 0.5 mm 4 mps 745 mmHg 83%
    20:00 +24°C° 0.5 mm 3 mps 745 mmHg 89%
    21:00 +22°C° 0.4 mm 4 mps 744 mmHg 91%
    22:00 +22°C° 0.4 mm 4 mps 743 mmHg 92%
    23:00 +22°C° 0.4 mm 4 mps 743 mmHg 94%

    Tomorrow, 27 June, Thursday

    Time Temperature Precipitation Wind Pressure Humidity
    00:00 +22°C° 0.1 mm 4 mps 742 mmHg 94%
    01:00 +22°C° 0.1 mm 4 mps 741 mmHg 94%
    02:00 +21°C° 0.1 mm 4 mps 740 mmHg 95%
    03:00 +21°C° 0 mm 5 mps 740 mmHg 95%
    04:00 +21°C° 0 mm 5 mps 739 mmHg 95%
    05:00 +21°C° 0 mm 5 mps 738 mmHg 96%
    06:00 +22°C° 0 mm 5 mps 738 mmHg 93%
    07:00 +22°C° 0 mm 6 mps 737 mmHg 90%
    08:00 +23°C° 0 mm 7 mps 737 mmHg 88%
    09:00 +22°C° 0.2 mm 6 mps 737 mmHg 88%
    10:00 +21°C° 0.2 mm 6 mps 736 mmHg 89%
    11:00 +20°C° 0.2 mm 6 mps 736 mmHg 90%
    12:00 +20°C° 0.7 mm 7 mps 736 mmHg 88%
    13:00 +21°C° 0.7 mm 8 mps 736 mmHg 87%
    14:00 +21°C° 0.7 mm 9 mps 737 mmHg 85%
    15:00 +20°C° 0.2 mm 8 mps 737 mmHg 82%
    16:00 +18°C° 0.2 mm 8 mps 737 mmHg 79%
    17:00 +17°C° 0.2 mm 8 mps 737 mmHg 76%
    18:00 +17°C° 0 mm 7 mps 737 mmHg 76%
    19:00 +16°C° 0 mm 7 mps 737 mmHg 75%
    20:00 +15°C° 0 mm 6 mps 737 mmHg 75%
    21:00 +14°C° 0 mm 6 mps 738 mmHg 73%
    22:00 +14°C° 0 mm 6 mps 738 mmHg 71%
    23:00 +12°C° 0 mm 7 mps 738 mmHg 69%

    Day after tomorrow, 28 June, Friday

    Time Temperature Precipitation Wind Pressure Humidity
    00:00 +11°C° 0 mm 7 mps 738 mmHg 72%
    01:00 +11°C° 0 mm 7 mps 738 mmHg 76%
    02:00 +10°C° 0 mm 7 mps 738 mmHg 79%
    03:00 +10°C° 0 mm 7 mps 738 mmHg 80%
    04:00 +10°C° 0 mm 7 mps 738 mmHg 81%
    05:00 +10°C° 0 mm 7 mps 738 mmHg 83%
    06:00 +11°C° 0 mm 8 mps 738 mmHg 80%
    07:00 +12°C° 0 mm 8 mps 738 mmHg 77%
    08:00 +13°C° 0 mm 9 mps 738 mmHg 73%
    09:00 +15°C° 0 mm 9 mps 738 mmHg 69%
    10:00 +16°C° 0 mm 9 mps 738 mmHg 65%
    11:00 +17°C° 0 mm 9 mps 738 mmHg 60%
    12:00 +17°C° 0.1 mm 9 mps 739 mmHg 60%
    13:00 +17°C° 0.1 mm 9 mps 739 mmHg 60%
    14:00 +17°C° 0.1 mm 9 mps 739 mmHg 60%
    15:00 +17°C° 0.1 mm 8 mps 739 mmHg 61%
    16:00 +17°C° 0.1 mm 8 mps 739 mmHg 62%
    17:00 +17°C° 0.1 mm 7 mps 739 mmHg 63%
    18:00 +16°C° 0.1 mm 7 mps 739 mmHg 65%
    19:00 +15°C° 0.1 mm 7 mps 740 mmHg 67%
    20:00 +14°C° 0.1 mm 6 mps 740 mmHg 70%
    21:00 +13°C° 0 mm 6 mps 740 mmHg 67%
    22:00 +11°C° 0 mm 6 mps 741 mmHg 65%
    23:00 +11°C° 0 mm 6 mps 741 mmHg 63%

    29 June, Saturday

    Time Temperature Precipitation Wind Pressure Humidity
    00:00 +10°C° 0 mm 5 mps 741 mmHg 64%
    01:00 +9°C° 0 mm 5 mps 741 mmHg 66%
    02:00 +8°C° 0 mm 5 mps 741 mmHg 67%
    03:00 +8°C° 0 mm 5 mps 742 mmHg 72%
    04:00 +8°C° 0 mm 5 mps 742 mmHg 76%
    05:00 +7°C° 0 mm 5 mps 742 mmHg 81%
    06:00 +9°C° 0 mm 6 mps 742 mmHg 77%
    07:00 +10°C° 0 mm 6 mps 742 mmHg 74%
    08:00 +13°C° 0 mm 6 mps 742 mmHg 70%
    09:00 +14°C° 0 mm 7 mps 742 mmHg 65%
    10:00 +15°C° 0 mm 7 mps 742 mmHg 61%
    11:00 +16°C° 0 mm 7 mps 743 mmHg 57%
    12:00 +17°C° 0 mm 7 mps 742 mmHg 56%
    13:00 +17°C° 0 mm 7 mps 742 mmHg 54%
    14:00 +18°C° 0 mm 7 mps 742 mmHg 53%
    15:00 +19°C° 0 mm 6 mps 742 mmHg 56%
    16:00 +19°C° 0 mm 6 mps 742 mmHg 58%
    17:00 +19°C° 0 mm 5 mps 742 mmHg 61%
    18:00 +17°C° 0 mm 5 mps 742 mmHg 67%
    19:00 +17°C° 0 mm 4 mps 742 mmHg 73%
    20:00 +16°C° 0 mm 3 mps 742 mmHg 79%
    21:00 +14°C° 0 mm 3 mps 743 mmHg 81%
    22:00 +14°C° 0 mm 4 mps 743 mmHg 83%
    23:00 +13°C° 0 mm 4 mps 743 mmHg 85%

    30 June, Sunday

    Time Temperature Precipitation Wind Pressure Humidity
    00:00 +13°C° 0 mm 4 mps 743 mmHg 88%
    01:00 +12°C° 0 mm 3 mps 743 mmHg 90%
    02:00 +11°C° 0 mm 3 mps 743 mmHg 93%
    03:00 +11°C° 0 mm 3 mps 743 mmHg 93%
    04:00 +11°C° 0 mm 3 mps 744 mmHg 93%
    05:00 +11°C° 0 mm 3 mps 744 mmHg 93%
    06:00 +13°C° 0 mm 3 mps 744 mmHg 87%
    07:00 +16°C° 0 mm 3 mps 744 mmHg 81%
    08:00 +18°C° 0 mm 3 mps 744 mmHg 75%
    09:00 +19°C° 0 mm 3 mps 744 mmHg 70%
    10:00 +21°C° 0 mm 3 mps 744 mmHg 66%
    11:00 +22°C° 0 mm 3 mps 744 mmHg 62%
    12:00 +24°C° 0 mm 3 mps 744 mmHg 61%
    13:00 +25°C° 0 mm 3 mps 744 mmHg 59%
    14:00 +25°C° 0 mm 4 mps 744 mmHg 58%
    15:00 +26°C° 0 mm 3 mps 743 mmHg 61%
    16:00 +26°C° 0 mm 3 mps 743 mmHg 64%
    17:00 +26°C° 0 mm 3 mps 743 mmHg 66%
    18:00 +25°C° 0 mm 3 mps 743 mmHg 73%
    19:00 +22°C° 0 mm 3 mps 743 mmHg 79%
    20:00 +21°C° 0 mm 3 mps 743 mmHg 86%
    21:00 +20°C° 0 mm 3 mps 743 mmHg 87%
    22:00 +19°C° 0 mm 3 mps 742 mmHg 88%
    23:00 +18°C° 0 mm 3 mps 742 mmHg 90%

    1 July, Monday

    Time Temperature Precipitation Wind Pressure Humidity
    00:00 +18°C° 0 mm 3 mps 742 mmHg 90%
    01:00 +17°C° 0 mm 3 mps 742 mmHg 91%
    02:00 +17°C° 0 mm 3 mps 742 mmHg 92%
    03:00 +17°C° 0 mm 3 mps 741 mmHg 91%
    04:00 +17°C° 0 mm 3 mps 741 mmHg 91%
    05:00 +17°C° 0 mm 3 mps 741 mmHg 90%
    06:00 +18°C° 0 mm 4 mps 740 mmHg 86%
    07:00 +20°C° 0 mm 4 mps 740 mmHg 82%
    08:00 +22°C° 0 mm 4 mps 740 mmHg 79%
    09:00 +23°C° 0 mm 4 mps 740 mmHg 76%
    10:00 +25°C° 0 mm 5 mps 740 mmHg 73%
    11:00 +26°C° 0 mm 5 mps 740 mmHg 71%
    12:00 +27°C° 0 mm 6 mps 740 mmHg 66%
    13:00 +27°C° 0 mm 6 mps 740 mmHg 60%
    14:00 +28°C° 0 mm 7 mps 740 mmHg 55%
    15:00 +27°C° 0 mm 6 mps 740 mmHg 57%
    16:00 +26°C° 0 mm 5 mps 740 mmHg 59%
    17:00 +25°C° 0 mm 5 mps 740 mmHg 61%
    18:00 +23°C° 0 mm 4 mps 740 mmHg 67%
    19:00 +21°C° 0 mm 3 mps 740 mmHg 74%
    20:00 +19°C° 0 mm 3 mps 740 mmHg 80%
    21:00 +18°C° 0 mm 2 mps 740 mmHg 83%
    22:00 +17°C° 0 mm 2 mps 740 mmHg 87%
    23:00 +16°C° 0 mm 2 mps 740 mmHg 90%
    Show more